FW2861 North Weymouth MA US current weather conditions

sailwx.info

Wind from 258 at 1 knots gusting 6

Air temperature 1.1° C
Dewpoint -4.1° C

Last reported at 2019-Dec-08 21:02 UTC.
Time now 2019-Dec-08 21:53 UTC

Location: N 42°15' W 070°57'.
View on Google Maps.

See reports from other nearby stations

  
Tides and Currents Weather Stations Pressure Air Temp Water Temp Dewpoint Dewpoint Depression Visibility Wind Speed Wind Dir Waves Ship Positions
date/time (UTC)wind fromknots sea level pressurealtimeterstation pressurevisibilityair tempwater tempwave heightnotes
2019-Dec-08 21:02 258 1 gusting 6 1.1
2019-Dec-08 20:52 256 1 gusting 6 1.1
2019-Dec-08 20:47 255 2 gusting 7 1.1
2019-Dec-08 20:42 257 1 gusting 7 1.1
2019-Dec-08 20:37 270 2 gusting 6 1.1
2019-Dec-08 20:32 244 0 gusting 6 1.1
2019-Dec-08 20:27 249 1 gusting 6 1.1
2019-Dec-08 20:22 200 1 gusting 6 1.1
2019-Dec-08 20:17 253 1 gusting 6 1.1
2019-Dec-08 20:11 277 1 gusting 6 1.1
2019-Dec-08 20:06 222 2 gusting 6 1.1
2019-Dec-08 20:01 273 5 gusting 6 1.1
2019-Dec-08 19:56 272 2 gusting 6 1.1
2019-Dec-08 19:51 264 2 gusting 6 1.1
2019-Dec-08 19:46 232 1 gusting 6 1.1
2019-Dec-08 19:41 251 3 gusting 6 1.1
2019-Dec-08 19:36 244 3 gusting 6 1.1
2019-Dec-08 19:31 266 1 gusting 6 1.1
2019-Dec-08 19:26 265 1 gusting 7 1.1
2019-Dec-08 19:21 212 1 gusting 7 1.7
2019-Dec-08 19:16 239 2 gusting 11 1.1
2019-Dec-08 19:11 273 6 gusting 12 1.1
2019-Dec-08 19:06 256 5 gusting 12 1.1
2019-Dec-08 19:01 302 6 gusting 11 1.7
2019-Dec-08 18:56 239 2 gusting 8 1.7
2019-Dec-08 18:51 261 6 gusting 8 1.7
2019-Dec-08 18:45 266 5 gusting 8 1.7
2019-Dec-08 18:40 252 3 gusting 7 2.2
2019-Dec-08 18:35 248 3 gusting 7 2.2
2019-Dec-08 18:30 177 5 gusting 8 1.7
2019-Dec-08 18:25 233 5 gusting 9 1.7
2019-Dec-08 18:20 253 4 gusting 9 1.7
2019-Dec-08 18:15 281 5 gusting 9 1.7
2019-Dec-08 18:10 194 2 gusting 6 1.7
2019-Dec-08 18:05 269 3 gusting 7 1.7
2019-Dec-08 18:00 230 3 gusting 7 1.7
2019-Dec-08 17:55 260 1 gusting 6 1.1
2019-Dec-08 17:50 182 3 gusting 11 1.1
2019-Dec-08 17:45 242 4 gusting 11 1.1
2019-Dec-08 17:40 185 3 gusting 7 1.1
2019-Dec-08 17:35 194 3 gusting 6 1.1
2019-Dec-08 17:29 275 5 gusting 7 1.1
2019-Dec-08 17:24 249 0 gusting 8 0.6
2019-Dec-08 17:19 257 3 gusting 8 0.6
2019-Dec-08 17:14 264 4 gusting 7 0.6
2019-Dec-08 17:09 222 2 gusting 7 0.6
2019-Dec-08 17:04 249 3 gusting 6 1.1
2019-Dec-08 16:59 222 0 gusting 6 0.6
2019-Dec-08 16:54 258 3 gusting 6 0.6
2019-Dec-08 16:49 225 1 gusting 6 0.6
2019-Dec-08 16:44 192 3 gusting 6 0.6
2019-Dec-08 16:39 275 1 gusting 6 0.6
2019-Dec-08 16:34 242 2 gusting 6 0.6
2019-Dec-08 16:29 254 2 gusting 7 -0.0
2019-Dec-08 16:24 232 2 gusting 7 -0.0
2019-Dec-08 16:18 268 2 gusting 7 -0.0
2019-Dec-08 16:13 274 2 gusting 7 -0.0
2019-Dec-08 16:08 209 0 gusting 6 -0.0
2019-Dec-08 16:03 244 2 gusting 6 -0.0
2019-Dec-08 15:58 243 0 gusting 5 -0.6
2019-Dec-08 15:53 252 1 gusting 5 -0.6
2019-Dec-08 15:48 259 0 gusting 5 -0.6
2019-Dec-08 15:43 159 1 gusting 5 -0.6
2019-Dec-08 15:38 247 2 gusting 6 -0.6
2019-Dec-08 15:33 248 4 gusting 6 -0.6
2019-Dec-08 15:28 207 1 gusting 6 -1.1
2019-Dec-08 15:23 252 1 gusting 6 -1.1
2019-Dec-08 15:18 235 1 gusting 5 -1.1
2019-Dec-08 15:13 231 1 gusting 5 -1.1
2019-Dec-08 15:08 248 0 gusting 3 -1.7
2019-Dec-08 15:03 242 -1.7
2019-Dec-08 14:57 254 -1.7
2019-Dec-08 14:52 214 2 gusting 3 -2.2
2019-Dec-08 14:47 216 1 gusting 2 -2.2
2019-Dec-08 14:42 252 1 gusting 3 -2.8
2019-Dec-08 14:37 250 1 gusting 3 -2.8
2019-Dec-08 14:32 236 1 gusting 3 -2.8
2019-Dec-08 14:27 246 0 gusting 2 -3.3
2019-Dec-08 14:22 244 -3.3
2019-Dec-08 14:17 245 0 gusting 2 -3.3
2019-Dec-08 14:12 189 0 gusting 2 -3.3
2019-Dec-08 14:07 223 0 gusting 1 -3.9
2019-Dec-08 14:02 248 0 gusting 1 -3.9
2019-Dec-08 13:57 249 0 gusting 1 -3.3
2019-Dec-08 13:52 244 0 gusting 1 -3.9
2019-Dec-08 13:47 238 -4.4
2019-Dec-08 13:42 233 1 gusting 2 -5.0
2019-Dec-08 13:37 248 -5.6
2019-Dec-08 13:32 248 -6.1
2019-Dec-08 13:26 243 -6.7
2019-Dec-08 13:21 216 -6.7
2019-Dec-08 13:16 244 -6.7
2019-Dec-08 13:11 212 -7.2
2019-Dec-08 13:06 235 -7.2
2019-Dec-08 13:01 245 -7.8
2019-Dec-08 12:56 240 -7.8
2019-Dec-08 12:51 228 0 gusting 1 -7.8
2019-Dec-08 12:46 215 0 gusting 1 -8.3
2019-Dec-08 12:41 230 -8.3
2019-Dec-08 12:36 230 -8.3
2019-Dec-08 12:31 237 -8.3
2019-Dec-08 12:25 247 -8.3
2019-Dec-08 12:20 242 -8.3
2019-Dec-08 12:15 245 -8.3
2019-Dec-08 12:10 246 -8.3
2019-Dec-08 12:05 247 -8.3
2019-Dec-08 12:00 247 -8.3
2019-Dec-08 11:55 249 -8.3
2019-Dec-08 11:50 256 -8.3
2019-Dec-08 11:45 246 -8.3
2019-Dec-08 11:39 247 -8.3
2019-Dec-08 11:34 251 -8.3
2019-Dec-08 11:29 255 -8.3
2019-Dec-08 11:24 248 -8.3
2019-Dec-08 11:19 246 -8.9
2019-Dec-08 11:14 251 -8.3
2019-Dec-08 11:09 247 -8.3
2019-Dec-08 11:04 247 -8.3
2019-Dec-08 10:59 249 -7.8
2019-Dec-08 10:54 247 -8.3
2019-Dec-08 10:49 240 -8.3
2019-Dec-08 10:44 249 -8.3
2019-Dec-08 10:39 235 -8.3
2019-Dec-08 10:33 246 -8.3
2019-Dec-08 10:28 247 -8.3
2019-Dec-08 10:23 249 -8.3
2019-Dec-08 10:18 253 0 gusting 1 -8.3
2019-Dec-08 10:13 233 0 gusting 1 -8.3
2019-Dec-08 10:08 248 -7.8
2019-Dec-08 10:03 234 -7.8
2019-Dec-08 09:58 247 -7.8
2019-Dec-08 09:53 248 -7.8
2019-Dec-08 09:48 246 -7.8
2019-Dec-08 09:43 251 -7.2
2019-Dec-08 09:38 263 1 gusting 2 -7.2
2019-Dec-08 09:33 268 1 gusting 2 -7.2
2019-Dec-08 09:28 256 -7.2
2019-Dec-08 09:23 255 0 gusting 1 -7.2
2019-Dec-08 09:18 244 -7.2
2019-Dec-08 09:12 244 -7.2
2019-Dec-08 09:07 251 -7.2
2019-Dec-08 09:02 251 -7.2
2019-Dec-08 08:57 240 -7.2
2019-Dec-08 08:52 235 0 gusting 1 -7.2
2019-Dec-08 08:47 242 -7.2
2019-Dec-08 08:42 250 0 gusting 1 -7.2
2019-Dec-08 08:37 249 -7.2
2019-Dec-08 08:32 258 0 gusting 1 -6.7
2019-Dec-08 08:27 257 0 gusting 2 -6.7
2019-Dec-08 08:22 247 -6.7
2019-Dec-08 08:17 250 -7.2
2019-Dec-08 08:12 251 -6.7
2019-Dec-08 08:07 248 -6.7
2019-Dec-08 08:02 251 -6.7
2019-Dec-08 07:57 249 -6.7
2019-Dec-08 07:52 247 -6.7
2019-Dec-08 07:47 245 -6.7
2019-Dec-08 07:42 250 -6.7
2019-Dec-08 07:37 247 -6.7
2019-Dec-08 07:32 246 -6.7
2019-Dec-08 07:26 250 -6.7
2019-Dec-08 07:21 247 -6.7
2019-Dec-08 07:16 247 -6.1
2019-Dec-08 07:11 236 -6.7
2019-Dec-08 07:06 250 -6.7
2019-Dec-08 07:01 248 -6.1
2019-Dec-08 06:56 246 -6.1
2019-Dec-08 06:51 246 -5.6
2019-Dec-08 06:46 242 -5.6
2019-Dec-08 06:41 234 -5.6
2019-Dec-08 06:35 246 -5.6
2019-Dec-08 06:30 267 -5.6
2019-Dec-08 06:25 245 -5.6
2019-Dec-08 06:20 238 -5.6
2019-Dec-08 06:15 246 -5.6
2019-Dec-08 06:10 248 -5.0
2019-Dec-08 06:05 245 -5.0
2019-Dec-08 06:00 251 -5.0
2019-Dec-08 05:55 238 -5.0
2019-Dec-08 05:50 254 -5.0
2019-Dec-08 05:45 241 -5.6
2019-Dec-08 05:40 242 -5.0
2019-Dec-08 05:35 237 -5.0
2019-Dec-08 05:30 248 -5.0
2019-Dec-08 05:25 243 -5.0
2019-Dec-08 05:19 278 0 gusting 2 -5.0
2019-Dec-08 05:15 245 -5.0
2019-Dec-08 05:09 256 -5.0
2019-Dec-08 05:04 242 -5.0
2019-Dec-08 04:59 245 -5.0
2019-Dec-08 04:54 247 -5.0
2019-Dec-08 04:49 243 -5.0
2019-Dec-08 04:44 242 -5.0
2019-Dec-08 04:39 245 -5.0
2019-Dec-08 04:34 248 -5.0
2019-Dec-08 04:29 241 -5.0
2019-Dec-08 04:24 250 -5.0
2019-Dec-08 04:19 247 -5.0
2019-Dec-08 04:14 247 -4.4
2019-Dec-08 04:09 249 -4.4
2019-Dec-08 04:04 248 -4.4
2019-Dec-08 03:59 243 -4.4
2019-Dec-08 03:54 246 -4.4
2019-Dec-08 03:49 247 -4.4
2019-Dec-08 03:44 246 -3.9
2019-Dec-08 03:38 237 -3.9
2019-Dec-08 03:33 251 -3.9
2019-Dec-08 03:28 244 0 gusting 2 -3.9
2019-Dec-08 03:23 248 -3.9
2019-Dec-08 03:18 252 -3.9
2019-Dec-08 03:13 248 -3.9
2019-Dec-08 03:08 040 1 gusting 2 -3.9
2019-Dec-08 03:03 236 0 gusting 2 -3.9
2019-Dec-08 02:58 268 -3.9
2019-Dec-08 02:53 233 0 gusting 1 -3.9
2019-Dec-08 02:48 267 -3.3
2019-Dec-08 02:43 239 0 gusting 2 -3.3
2019-Dec-08 02:37 249 -3.3
2019-Dec-08 02:32 254 -3.3
2019-Dec-08 02:27 243 0 gusting 1 -3.3
2019-Dec-08 02:22 257 -3.3
2019-Dec-08 02:17 241 0 gusting 1 -3.3
2019-Dec-08 02:12 260 0 gusting 1 -3.3
2019-Dec-08 02:07 247 -3.3
2019-Dec-08 02:02 248 -3.3
2019-Dec-08 01:57 258 -3.3
2019-Dec-08 01:52 247 -3.3
2019-Dec-08 01:47 231 -3.3
2019-Dec-08 01:42 244 -3.3
2019-Dec-08 01:37 245 0 gusting 1 -3.3
2019-Dec-08 01:32 250 0 gusting 2 -3.3
2019-Dec-08 01:27 254 0 gusting 2 -3.3
2019-Dec-08 01:22 241 -2.8
2019-Dec-08 01:17 265 0 gusting 2 -3.3
2019-Dec-08 01:11 248 -3.3
2019-Dec-08 01:06 246 -3.3
2019-Dec-08 01:01 246 -2.8
2019-Dec-08 00:56 247 -2.8
2019-Dec-08 00:51 244 -2.8
2019-Dec-08 00:46 241 -2.8
2019-Dec-08 00:41 259 0 gusting 2 -2.8
2019-Dec-08 00:36 247 -2.8
2019-Dec-08 00:31 249 -2.8
2019-Dec-08 00:26 249 -2.2
2019-Dec-08 00:21 252 0 gusting 2 -2.2
2019-Dec-08 00:16 249 1 gusting 2 -2.2
2019-Dec-08 00:11 254 0 gusting 1 -2.2
2019-Dec-08 00:06 266 -2.2
2019-Dec-08 00:01 252 -2.2
2019-Dec-07 23:56 306 0 gusting 2 -2.2
2019-Dec-07 23:51 252 -2.2
2019-Dec-07 23:46 220 -2.2
2019-Dec-07 23:41 251 -2.2
2019-Dec-07 23:36 245 -2.2
2019-Dec-07 23:30 248 -2.2
2019-Dec-07 23:25 223 -2.2
2019-Dec-07 23:20 225 -1.7
2019-Dec-07 23:15 248 -1.7
2019-Dec-07 23:10 241 0 gusting 3 -1.7
2019-Dec-07 23:05 252 0 gusting 3 -1.7
2019-Dec-07 23:00 247 0 gusting 2 -1.7
2019-Dec-07 22:55 254 0 gusting 2 -1.7
2019-Dec-07 22:50 232 1 gusting 3 -1.7
2019-Dec-07 22:45 315 -1.7
2019-Dec-07 22:40 237 -1.7
2019-Dec-07 22:35 249 0 gusting 3 -1.7
2019-Dec-07 22:30 223 0 gusting 3 -1.7
2019-Dec-07 22:25 273 -1.7
2019-Dec-07 22:19 248 1 gusting 5 -1.7
2019-Dec-07 22:14 247 -1.1
2019-Dec-07 22:09 247 -1.1
2019-Dec-07 22:04 194 0 gusting 2 -1.7
2019-Dec-07 21:59 233 -1.7
2019-Dec-07 21:54 248 0 gusting 1 -1.7
2019-Dec-07 21:49 238 -1.7
2019-Dec-07 21:44 256 0 gusting 2 -1.7
2019-Dec-07 21:39 252 -1.1
2019-Dec-07 21:34 245 0 gusting 2 -1.1
2019-Dec-07 21:29 255 -1.1
2019-Dec-07 21:24 226 -1.1
2019-Dec-07 21:19 248 0 gusting 3 -1.1
2019-Dec-07 21:14 222 -1.1
2019-Dec-07 21:09 247 -1.1
2019-Dec-07 21:04 236 -1.1
2019-Dec-07 20:59 238 -0.6
2019-Dec-07 20:54 180 -0.6
2019-Dec-07 20:49 163 0 gusting 2 -0.6
2019-Dec-07 20:44 232 0 gusting 2 -0.6
2019-Dec-07 20:39 268 1 gusting 2 -0.0
2019-Dec-07 20:34 268 1 gusting 2 -0.0
2019-Dec-07 20:28 219 0 gusting 3 -0.0
2019-Dec-07 20:23 248 0 gusting 6 0.6
2019-Dec-07 20:18 249 -0.0
2019-Dec-07 20:13 041 2 gusting 3 -0.0
2019-Dec-07 20:08 249 -0.0
2019-Dec-07 20:03 244 -0.0
2019-Dec-07 19:58 255 -0.0
2019-Dec-07 19:53 232 0 gusting 2 -0.0
2019-Dec-07 19:48 223 0 gusting 3 0.6
2019-Dec-07 19:43 212 1 gusting 3 0.6
2019-Dec-07 19:38 236 0.6
2019-Dec-07 19:33 247 0 gusting 2 0.6
2019-Dec-07 19:28 296 0.6
2019-Dec-07 19:23 234 0 gusting 5 0.6
2019-Dec-07 19:18 238 0 gusting 2 0.6
2019-Dec-07 19:13 249 0 gusting 3 0.6
2019-Dec-07 19:08 242 0 gusting 5 1.1
2019-Dec-07 19:03 254 1.1
2019-Dec-07 18:57 242 0 gusting 3 1.7
2019-Dec-07 18:52 109 1.7
2019-Dec-07 18:47 144 0 gusting 5 1.7
2019-Dec-07 18:42 331 1 gusting 3 1.7
2019-Dec-07 18:37 249 1.7
2019-Dec-07 18:32 279 1 gusting 3 1.1
2019-Dec-07 18:27 247 1.1
2019-Dec-07 18:22 316 2 gusting 5 1.7
2019-Dec-07 18:17 249 1.1
2019-Dec-07 18:12 231 1.1
2019-Dec-07 18:07 232 0 gusting 6 1.1
2019-Dec-07 18:02 257 0 gusting 5 1.1
2019-Dec-07 17:57 299 0 gusting 5 1.1
2019-Dec-07 17:52 240 1.1
2019-Dec-07 17:47 245 0 gusting 3 1.1
2019-Dec-07 17:42 249 0.6
2019-Dec-07 17:37 232 1 gusting 3 1.1
2019-Dec-07 17:31 237 0.6
2019-Dec-07 17:26 243 0.6
2019-Dec-07 17:21 249 0 gusting 1 0.6
2019-Dec-07 17:16 237 0.6
2019-Dec-07 17:11 014 0 gusting 3 0.6
2019-Dec-07 17:06 308 0.6
2019-Dec-07 17:01 233 0 gusting 1 0.6
2019-Dec-07 16:56 243 0 gusting 3 0.6
2019-Dec-07 16:51 244 0 gusting 3 0.6
2019-Dec-07 16:46 232 1 gusting 5 0.6
2019-Dec-07 16:41 243 0 gusting 5 0.6
2019-Dec-07 16:36 244 1 gusting 6 0.6
2019-Dec-07 16:31 244 0 gusting 6 0.6
2019-Dec-07 16:26 225 1 gusting 3 0.6
2019-Dec-07 16:21 244 0 gusting 2 -0.0
2019-Dec-07 16:15 202 0 gusting 2 -0.0
2019-Dec-07 16:10 200 1 gusting 3 -0.0
2019-Dec-07 16:05 307 1 gusting 3 -0.6
2019-Dec-07 16:00 309 0 gusting 6 -0.6
2019-Dec-07 15:55 313 0 gusting 6 -0.6
2019-Dec-07 15:50 246 -0.6
2019-Dec-07 15:45 253 -0.6
2019-Dec-07 15:40 184 0 gusting 5 -0.6
2019-Dec-07 15:35 249 1 gusting 5 -1.1
2019-Dec-07 15:30 213 0 gusting 6 -1.1
2019-Dec-07 15:25 271 3 gusting 6 -0.6
2019-Dec-07 15:20 041 0 gusting 3 -0.6
2019-Dec-07 15:15 209 -0.6
2019-Dec-07 15:10 231 0 gusting 3 -1.1
2019-Dec-07 15:05 223 -0.6
2019-Dec-07 15:00 242 0 gusting 6 -1.1
2019-Dec-07 14:55 266 1 gusting 6 -1.1
2019-Dec-07 14:50 216 0 gusting 5 -1.1
2019-Dec-07 14:45 207 -1.7
2019-Dec-07 14:40 057 1 gusting 6 -1.1
2019-Dec-07 14:35 299 0 gusting 5 -1.1
2019-Dec-07 14:29 264 0 gusting 5 -1.7
2019-Dec-07 14:24 249 1 gusting 5 -1.7
2019-Dec-07 14:19 274 1 gusting 3 -1.7
2019-Dec-07 14:14 235 2 gusting 3 -1.1
2019-Dec-07 14:09 307 0 gusting 3 -1.1
2019-Dec-07 14:04 221 -1.1
2019-Dec-07 13:59 281 1 gusting 3 -1.1
2019-Dec-07 13:54 239 -1.1
2019-Dec-07 13:49 262 0 gusting 2 -1.1
2019-Dec-07 13:44 239 0 gusting 6 -1.7
2019-Dec-07 13:39 257 0 gusting 6 -1.7
2019-Dec-07 13:34 291 0 gusting 3 -2.2
2019-Dec-07 13:29 226 0 gusting 3 -2.2
2019-Dec-07 13:24 205 0 gusting 3 -2.8
2019-Dec-07 13:19 220 -2.8
2019-Dec-07 13:14 311 1 gusting 3 -2.8
2019-Dec-07 13:09 240 0 gusting 3 -2.8
2019-Dec-07 13:04 255 1 gusting 3 -2.8
2019-Dec-07 12:59 252 -2.8
2019-Dec-07 12:53 254 0 gusting 6 -2.8
2019-Dec-07 12:48 245 -3.3
2019-Dec-07 12:43 272 -3.3
2019-Dec-07 12:38 226 -3.3
2019-Dec-07 12:33 236 -3.3
2019-Dec-07 12:28 261 -3.3
2019-Dec-07 12:23 311 -3.3
2019-Dec-07 12:18 250 -3.9
2019-Dec-07 12:13 245 -3.9
2019-Dec-07 12:08 247 -3.3
2019-Dec-07 12:03 231 -3.3
2019-Dec-07 11:58 244 -3.3
2019-Dec-07 11:53 268 -3.3
2019-Dec-07 11:48 283 -3.3
2019-Dec-07 11:43 242 -3.3
2019-Dec-07 11:38 242 -3.3
2019-Dec-07 11:33 258 -3.3
2019-Dec-07 11:28 245 -3.3
2019-Dec-07 11:22 246 -3.3
2019-Dec-07 11:17 250 -3.3
2019-Dec-07 11:12 263 0 gusting 5 -3.3
2019-Dec-07 11:07 235 0 gusting 5 -3.3
2019-Dec-07 11:02 278 0 gusting 1 -3.3
2019-Dec-07 10:57 220 -3.3
2019-Dec-07 10:52 260 0 gusting 2 -3.3
2019-Dec-07 10:47 246 -3.3
2019-Dec-07 10:42 250 -3.3
2019-Dec-07 10:37 295 0 gusting 3 -2.8
2019-Dec-07 10:32 213 0 gusting 2 -2.8
2019-Dec-07 10:27 296 0 gusting 5 -2.8
2019-Dec-07 10:21 304 -2.8
2019-Dec-07 10:16 254 -2.8
2019-Dec-07 10:11 331 1 gusting 3 -2.8
2019-Dec-07 10:06 261 0 gusting 5 -2.8
2019-Dec-07 10:01 254 -2.8
2019-Dec-07 09:56 275 -2.8
2019-Dec-07 09:51 246 -2.8
2019-Dec-07 09:46 247 -2.8
2019-Dec-07 09:41 282 1 gusting 6 -2.2
2019-Dec-07 09:36 242 -2.2
2019-Dec-07 09:31 301 -2.2
2019-Dec-07 09:26 248 -2.2
2019-Dec-07 09:21 043 1 gusting 6 -2.2
2019-Dec-07 09:16 261 0 gusting 6 -2.2
2019-Dec-07 09:11 248 0 gusting 6 -2.2
2019-Dec-07 09:06 264 0 gusting 5 -2.2
2019-Dec-07 09:01 330 1 gusting 5 -2.2
2019-Dec-07 08:56 306 1 gusting 5 -2.2
2019-Dec-07 08:50 296 -2.2
2019-Dec-07 08:45 049 1 gusting 5 -1.7
2019-Dec-07 08:40 285 0 gusting 5 -1.7
2019-Dec-07 08:35 241 -1.7
2019-Dec-07 08:30 287 0 gusting 7 -1.7
2019-Dec-07 08:25 272 1 gusting 7 -1.7
2019-Dec-07 08:20 244 0 gusting 5 -1.1
2019-Dec-07 08:15 323 0 gusting 3 -1.1
2019-Dec-07 08:10 281 0 gusting 3 -1.1
2019-Dec-07 08:05 285 -1.1
2019-Dec-07 08:00 272 0 gusting 3 -1.1
2019-Dec-07 07:55 247 -1.1
2019-Dec-07 07:50 240 0 gusting 2 -1.1
2019-Dec-07 07:45 249 0 gusting 2 -1.1
2019-Dec-07 07:40 253 -1.1
2019-Dec-07 07:34 250 -1.1
2019-Dec-07 07:29 265 -1.1
2019-Dec-07 07:24 247 -1.1
2019-Dec-07 07:19 240 -1.1
2019-Dec-07 07:14 247 -1.1
2019-Dec-07 07:09 275 1 gusting 3 -1.1
2019-Dec-07 07:04 246 -1.1
2019-Dec-07 06:59 261 0 gusting 2 -1.1
2019-Dec-07 06:54 226 0 gusting 3 -1.1
2019-Dec-07 06:49 344 0 gusting 3 -1.1
2019-Dec-07 06:44 280 -1.1
2019-Dec-07 06:39 237 -1.1
2019-Dec-07 06:34 248 -1.1
2019-Dec-07 06:29 261 -1.1
2019-Dec-07 06:24 250 -1.1
2019-Dec-07 06:19 246 -1.1
2019-Dec-07 06:14 264 1 gusting 3 -1.1
2019-Dec-07 06:09 229 0 gusting 2 -1.1
2019-Dec-07 06:04 320 0 gusting 2 -1.1
2019-Dec-07 05:59 248 -1.1
2019-Dec-07 05:53 246 -1.1
2019-Dec-07 05:48 235 0 gusting 2 -1.1
2019-Dec-07 05:43 239 -1.1
2019-Dec-07 05:38 245 0 gusting 5 -1.1
2019-Dec-07 05:33 241 -1.1
2019-Dec-07 05:28 240 0 gusting 2 -1.1
2019-Dec-07 05:23 250 -1.1
2019-Dec-07 05:18 248 -1.1
2019-Dec-07 05:13 258 0 gusting 1 -1.1
2019-Dec-07 05:08 234 0 gusting 2 -1.1
2019-Dec-07 05:03 238 0 gusting 2 -1.1
2019-Dec-07 04:58 272 1 gusting 2 -1.1
2019-Dec-07 04:53 241 1 gusting 2 -1.1
2019-Dec-07 04:48 245 -1.1
2019-Dec-07 04:43 237 -1.1
2019-Dec-07 04:38 242 -1.1
2019-Dec-07 04:33 238 0 gusting 2 -0.6
2019-Dec-07 04:28 272 0 gusting 2 -0.6
2019-Dec-07 04:23 222 0 gusting 1 -0.6
2019-Dec-07 04:17 236 -0.6
2019-Dec-07 04:12 008 0 gusting 1 -0.6
2019-Dec-07 04:07 253 -0.6
2019-Dec-07 04:02 237 -0.6
2019-Dec-07 03:57 297 1 gusting 2 -0.0
2019-Dec-07 03:52 251 -0.0
2019-Dec-07 03:47 235 -0.0
2019-Dec-07 03:42 249 -0.6
2019-Dec-07 03:37 262 0 gusting 2 -0.6
2019-Dec-07 03:32 248 -0.6
2019-Dec-07 03:27 250 -0.6
2019-Dec-07 03:21 249 0 gusting 6 -0.0
2019-Dec-07 03:16 207 -0.0
2019-Dec-07 03:11 247 1 gusting 5 -0.0
2019-Dec-07 03:06 242 0.6
2019-Dec-07 03:01 252 0 gusting 2 0.6
2019-Dec-07 02:56 312 1 gusting 2 -0.0
2019-Dec-07 02:51 253 0 gusting 1 -0.0
2019-Dec-07 02:46 284 0 gusting 1 -0.0
2019-Dec-07 02:41 266 -0.0
2019-Dec-07 02:36 255 0 gusting 3 -0.0
2019-Dec-07 02:31 241 -0.0
2019-Dec-07 02:26 243 -0.0
2019-Dec-07 02:21 248 0 gusting 0 -0.0
2019-Dec-07 02:16 251 -0.0
2019-Dec-07 02:11 254 -0.0
2019-Dec-07 02:05 250 -0.0
2019-Dec-07 02:00 251 -0.0
2019-Dec-07 01:55 247 -0.0
2019-Dec-07 01:50 235 -0.0
2019-Dec-07 01:45 240 0.6
2019-Dec-07 01:40 247 0.6
2019-Dec-07 01:35 248 0.6
2019-Dec-07 01:30 253 0.6
2019-Dec-07 01:25 250 0.6
2019-Dec-07 01:20 251 0.6
2019-Dec-07 01:15 247 0.6
2019-Dec-07 01:10 250 0.6
2019-Dec-07 01:05 245 0.6
2019-Dec-07 01:00 252 0.6
2019-Dec-07 00:54 244 0.6
2019-Dec-07 00:49 251 0.6
2019-Dec-07 00:44 249 0.6
2019-Dec-07 00:39 248 0.6
2019-Dec-07 00:34 247 0.6
2019-Dec-07 00:29 245 0.6
2019-Dec-07 00:24 250 0.6
2019-Dec-07 00:19 250 0.6
2019-Dec-07 00:14 249 0.6
2019-Dec-07 00:09 245 0.6
2019-Dec-07 00:04 249 0.6
2019-Dec-06 23:59 252 -0.0
2019-Dec-06 23:54 247 -0.0
2019-Dec-06 23:48 252 -0.0
2019-Dec-06 23:43 251 -0.0
2019-Dec-06 23:38 250 -0.0
2019-Dec-06 23:33 250 -0.0
2019-Dec-06 23:28 251 -0.0
2019-Dec-06 23:23 251 -0.0
2019-Dec-06 23:18 247 -0.0
2019-Dec-06 23:13 247 -0.0
2019-Dec-06 23:08 249 -0.0
2019-Dec-06 23:03 255 -0.0
2019-Dec-06 22:58 247 -0.0
2019-Dec-06 22:53 241 -0.0
2019-Dec-06 22:48 245 -0.0
2019-Dec-06 22:43 255 -0.0
2019-Dec-06 22:38 250 -0.0
2019-Dec-06 22:33 245 -0.0
2019-Dec-06 22:28 251 -0.0
2019-Dec-06 22:23 251 -0.6
2019-Dec-06 22:18 236 0 gusting 0 -0.6
2019-Dec-06 22:13 249 -0.0
2019-Dec-06 22:08 240 -0.0
2019-Dec-06 22:03 243 -0.0
2019-Dec-06 21:57 171 1 gusting 1 -0.6
2019-Dec-06 21:52 248 -0.6
2019-Dec-06 21:47 252 -0.6
2019-Dec-06 21:42 272 -0.6
2019-Dec-06 21:37 259 -0.6
2019-Dec-06 21:32 277 -0.6
2019-Dec-06 21:27 246 -0.0
2019-Dec-06 21:22 256 -0.0
2019-Dec-06 21:17 252 -0.0
2019-Dec-06 21:12 223 0 gusting 1 -0.0
2019-Dec-06 21:07 220 -0.0
2019-Dec-06 21:02 194 0 gusting 2 -0.0